Location: Albany
(35.0000°S, 118.0000°E)
Time: 20:29:19
(UTC-04:00)

ADEOS Rocket - Visible Passes

Search period start: 02 August 2015 00:00
Search period end: 12 August 2015 00:00
Orbit: 860 x 1306 km, 98.7° (Epoch: 01 August)

Date Brightness Start Highest point End Pass type
(mag) Time Alt. Az. Time Alt. Az. Time Alt. Az.
02 Aug 3.1 07:12:08 10° SSE 07:18:27 76° ENE 07:25:27 10° N visible
02 Aug 5.5 08:59:44 10° SSW 09:03:35 16° WSW 09:07:16 10° W visible
02 Aug 5.2 17:26:00 10° ENE 17:30:03 21° ESE 17:34:13 10° SSE visible
03 Aug 3.9 06:23:53 10° SE 06:29:25 31° E 06:35:33 10° NNE visible
03 Aug 4.3 08:09:08 10° S 08:14:59 40° WSW 08:21:17 10° NW visible
03 Aug 3.2 18:20:47 10° NNE 18:26:24 69° ESE 18:31:56 10° S visible
04 Aug 3.1 07:19:47 10° SSE 07:26:12 87° ENE 07:33:19 10° NNW visible
04 Aug 5.7 09:07:57 10° SSW 09:11:14 14° WSW 09:14:14 10° W visible
04 Aug 4.9 17:33:15 10° ENE 17:37:40 25° ESE 17:42:11 10° SSE visible
05 Aug 3.7 06:31:20 10° SSE 06:37:14 37° E 06:43:45 10° NNE visible
05 Aug 4.6 08:16:57 10° S 08:22:42 34° WSW 08:28:49 10° NW visible
05 Aug 2.9 18:28:27 10° NNE 18:34:04 83° ESE 18:39:39 10° S visible
06 Aug 3.3 07:27:27 10° S 07:33:58 81° WSW 07:41:08 10° NNW visible
06 Aug 5.9 09:16:24 10° SW 09:18:53 12° WSW 09:20:56 10° W visible
06 Aug 4.7 17:40:35 10° NE 17:45:17 30° ESE 17:50:05 10° S visible
07 Aug 3.6 06:38:50 10° SSE 06:45:02 44° E 06:51:53 10° N visible
07 Aug 4.9 08:24:49 10° S 08:30:25 30° WSW 08:36:17 10° NW visible
07 Aug 5.7 16:55:47 10° ESE 16:56:48 11° ESE 16:58:12 10° SE visible
08 Aug 4.6 05:51:36 10° SE 05:55:46 18° E 06:00:31 10° NE visible
08 Aug 3.5 07:35:10 10° S 07:41:43 70° WSW 07:48:54 10° NNW visible
08 Aug 4.4 17:47:58 10° NE 17:52:55 35° ESE 17:57:58 10° S visible
09 Aug 3.5 06:46:22 10° SSE 06:52:50 52° E 06:59:57 10° N visible
09 Aug 5.1 08:32:43 10° SSW 08:38:07 26° WSW 08:43:42 10° WNW visible
09 Aug 5.6 17:02:05 10° E 17:04:23 13° ESE 17:07:01 10° SE visible
10 Aug 4.4 05:58:45 10° SE 06:03:39 22° E 06:09:07 10° NE visible
10 Aug 3.8 07:42:54 10° S 07:49:28 61° WSW 07:56:38 10° NNW visible
10 Aug 4.1 17:55:24 10° NE 18:00:32 42° ESE 18:05:49 10° S visible
11 Aug 3.4 06:53:58 10° SSE 07:00:38 61° E 07:07:57 10° N visible
11 Aug 5.3 08:40:40 10° SSW 08:45:49 23° WSW 08:51:02 10° WNW visible
11 Aug 5.5 17:08:54 10° E 17:11:59 16° ESE 17:15:21 10° SSE visible
